[Date Prev][Date Next][Thread Prev][Thread Next] - [Date Index][Thread Index][Author Index]

2 Line ISS Keps 6-12



ISS
1 25544U 98067A   04164.43870198  .00014556  00000-0  12856-3 0  9788
2 25544  51.6328 349.9490 0005436 223.6245 219.4410 15.68935697317570


----
Via the sarex mailing list at AMSAT.ORG courtesy of AMSAT-NA.
To unsubscribe, send "unsubscribe sarex" to Majordomo@amsat.org



AMSAT Top AMSAT Home